User: anonymous   Login
Location: Rancho Del Sol Observatory
(38.7214°N, 120.6350°W)
Time: 21:50:48
(UTC-07:00)
Language:

Cosmos 2221 Rocket - Orbit

View from above orbital plane
View from above orbital plane
View from above satellite
View from above satellite

Ground track
Ground track

The orbit data is extracted from the following two-line orbital elements,

1 22237U 92080B   14302.60391075  .00000496  00000-0  65474-4 0  4800
2 22237 082.5102 292.0464 0021544 109.0083 032.0027 14.77937568181382
Epoch (UTC): 29 October 2014 14:29:37
Eccentricity: 0.0021544
inclination: 82.5102°
perigee height: 621 km
apogee height: 651 km
right ascension of ascending node: 292.0464°
argument of perigee: 109.0083°
revolutions per day: 14.77937568
mean anomaly at epoch: 32.0027°
orbit number at epoch: 18138

The dashed part of the orbit path shows where the satellite is in the earth's shadow,  

DLR